• In India
  • List of Countries
  • For 7 days
  • Water Temperature
  • Satellite Maps
  • Weather Map
  • Weather Widgets
  • user-avatar
    Login

    Hourly Weather Popelak

    Today, 20 August, Monday

    Time Temperature Precipitation Wind Pressure Humidity
    00:00 +20°C° 0 mm 3 mps 760 mmHg 39%
    01:00 +20°C° 0 mm 4 mps 760 mmHg 39%
    02:00 +19°C° 0 mm 4 mps 760 mmHg 39%
    03:00 +19°C° 0 mm 4 mps 760 mmHg 40%
    04:00 +18°C° 0 mm 4 mps 760 mmHg 41%
    05:00 +18°C° 0 mm 4 mps 760 mmHg 41%
    06:00 +20°C° 0 mm 4 mps 760 mmHg 39%
    07:00 +22°C° 0 mm 5 mps 760 mmHg 36%
    08:00 +25°C° 0 mm 5 mps 760 mmHg 33%
    09:00 +27°C° 0 mm 5 mps 760 mmHg 29%
    10:00 +29°C° 0 mm 6 mps 760 mmHg 25%
    11:00 +30°C° 0 mm 6 mps 759 mmHg 22%
    12:00 +30°C° 0 mm 6 mps 759 mmHg 21%
    13:00 +32°C° 0 mm 6 mps 759 mmHg 20%
    14:00 +32°C° 0 mm 5 mps 759 mmHg 19%
    15:00 +32°C° 0 mm 5 mps 758 mmHg 20%
    16:00 +30°C° 0 mm 5 mps 758 mmHg 20%
    17:00 +30°C° 0 mm 5 mps 758 mmHg 20%
    18:00 +28°C° 0 mm 4 mps 758 mmHg 23%
    19:00 +25°C° 0 mm 3 mps 758 mmHg 26%
    20:00 +22°C° 0 mm 3 mps 758 mmHg 29%
    21:00 +22°C° 0 mm 3 mps 758 mmHg 30%
    22:00 +21°C° 0 mm 3 mps 758 mmHg 30%
    23:00 +21°C° 0 mm 3 mps 758 mmHg 30%

    Tomorrow, 21 August, Tuesday

    Time Temperature Precipitation Wind Pressure Humidity
    00:00 +20°C° 0 mm 3 mps 758 mmHg 31%
    01:00 +20°C° 0 mm 3 mps 758 mmHg 31%
    02:00 +20°C° 0 mm 3 mps 758 mmHg 32%
    03:00 +19°C° 0 mm 3 mps 758 mmHg 33%
    04:00 +19°C° 0 mm 3 mps 758 mmHg 35%
    05:00 +18°C° 0 mm 3 mps 758 mmHg 37%
    06:00 +21°C° 0 mm 3 mps 758 mmHg 34%
    07:00 +24°C° 0 mm 3 mps 758 mmHg 31%
    08:00 +27°C° 0 mm 3 mps 758 mmHg 28%
    09:00 +28°C° 0 mm 3 mps 758 mmHg 25%
    10:00 +30°C° 0 mm 3 mps 758 mmHg 22%
    11:00 +31°C° 0 mm 3 mps 758 mmHg 18%
    12:00 +33°C° 0 mm 3 mps 758 mmHg 18%
    13:00 +34°C° 0 mm 3 mps 757 mmHg 17%
    14:00 +34°C° 0 mm 3 mps 757 mmHg 16%
    15:00 +34°C° 0 mm 3 mps 757 mmHg 17%
    16:00 +33°C° 0 mm 3 mps 757 mmHg 18%
    17:00 +33°C° 0 mm 3 mps 757 mmHg 20%
    18:00 +30°C° 0 mm 2 mps 757 mmHg 24%
    19:00 +27°C° 0 mm 2 mps 757 mmHg 29%
    20:00 +25°C° 0 mm 1 mps 757 mmHg 33%
    21:00 +24°C° 0 mm 1 mps 757 mmHg 34%
    22:00 +24°C° 0 mm 1 mps 757 mmHg 35%
    23:00 +23°C° 0 mm 1 mps 757 mmHg 36%

    Day after tomorrow, 22 August, Wednesday

    Time Temperature Precipitation Wind Pressure Humidity
    00:00 +23°C° 0 mm 1 mps 757 mmHg 35%
    01:00 +23°C° 0 mm 2 mps 757 mmHg 35%
    02:00 +23°C° 0 mm 2 mps 757 mmHg 34%
    03:00 +23°C° 0 mm 2 mps 757 mmHg 34%
    04:00 +21°C° 0 mm 2 mps 758 mmHg 34%
    05:00 +21°C° 0 mm 2 mps 758 mmHg 34%
    06:00 +24°C° 0 mm 2 mps 758 mmHg 34%
    07:00 +27°C° 0 mm 3 mps 758 mmHg 35%
    08:00 +29°C° 0 mm 3 mps 758 mmHg 35%
    09:00 +30°C° 0 mm 3 mps 758 mmHg 35%
    10:00 +31°C° 0 mm 3 mps 758 mmHg 35%
    11:00 +34°C° 0 mm 3 mps 758 mmHg 35%
    12:00 +34°C° 0 mm 4 mps 758 mmHg 35%
    13:00 +34°C° 0 mm 4 mps 758 mmHg 36%
    14:00 +33°C° 0 mm 4 mps 758 mmHg 36%
    15:00 +33°C° 0 mm 4 mps 758 mmHg 35%
    16:00 +33°C° 0 mm 4 mps 758 mmHg 34%
    17:00 +32°C° 0 mm 4 mps 758 mmHg 33%
    18:00 +30°C° 0 mm 5 mps 759 mmHg 35%
    19:00 +28°C° 0 mm 5 mps 759 mmHg 36%
    20:00 +26°C° 0 mm 5 mps 759 mmHg 37%
    21:00 +26°C° 0 mm 5 mps 760 mmHg 39%
    22:00 +24°C° 0 mm 6 mps 760 mmHg 42%
    23:00 +23°C° 0 mm 6 mps 760 mmHg 44%

    23 August, Thursday

    Time Temperature Precipitation Wind Pressure Humidity
    00:00 +22°C° 0 mm 6 mps 760 mmHg 45%
    01:00 +22°C° 0 mm 6 mps 760 mmHg 45%
    02:00 +21°C° 0 mm 6 mps 760 mmHg 45%
    03:00 +21°C° 0 mm 6 mps 760 mmHg 46%
    04:00 +20°C° 0 mm 6 mps 760 mmHg 46%
    05:00 +20°C° 0 mm 6 mps 761 mmHg 46%
    06:00 +21°C° 0 mm 6 mps 761 mmHg 43%
    07:00 +22°C° 0 mm 6 mps 761 mmHg 41%
    08:00 +24°C° 0 mm 6 mps 761 mmHg 38%
    09:00 +26°C° 0 mm 6 mps 761 mmHg 36%
    10:00 +28°C° 0 mm 6 mps 761 mmHg 34%
    11:00 +30°C° 0 mm 5 mps 761 mmHg 32%
    12:00 +32°C° 0 mm 5 mps 760 mmHg 31%
    13:00 +32°C° 0 mm 5 mps 760 mmHg 29%
    14:00 +33°C° 0 mm 5 mps 760 mmHg 28%
    15:00 +32°C° 0 mm 5 mps 760 mmHg 28%
    16:00 +32°C° 0 mm 5 mps 760 mmHg 29%
    17:00 +30°C° 0 mm 5 mps 759 mmHg 29%
    18:00 +29°C° 0 mm 5 mps 759 mmHg 33%
    19:00 +27°C° 0 mm 4 mps 760 mmHg 37%
    20:00 +25°C° 0 mm 3 mps 760 mmHg 41%
    21:00 +23°C° 0 mm 4 mps 760 mmHg 39%
    22:00 +23°C° 0 mm 4 mps 760 mmHg 38%
    23:00 +22°C° 0 mm 5 mps 759 mmHg 36%

    24 August, Friday

    Time Temperature Precipitation Wind Pressure Humidity
    00:00 +22°C° 0 mm 5 mps 759 mmHg 35%
    01:00 +21°C° 0 mm 5 mps 759 mmHg 33%
    02:00 +21°C° 0 mm 6 mps 759 mmHg 31%
    03:00 +21°C° 0 mm 6 mps 759 mmHg 33%
    04:00 +20°C° 0 mm 6 mps 759 mmHg 34%
    05:00 +20°C° 0 mm 6 mps 759 mmHg 35%
    06:00 +22°C° 0 mm 6 mps 759 mmHg 35%
    07:00 +23°C° 0 mm 6 mps 759 mmHg 34%
    08:00 +26°C° 0 mm 7 mps 759 mmHg 34%
    09:00 +28°C° 0 mm 7 mps 758 mmHg 32%
    10:00 +30°C° 0 mm 7 mps 758 mmHg 30%
    11:00 +32°C° 0 mm 7 mps 758 mmHg 28%
    12:00 +33°C° 0 mm 7 mps 757 mmHg 27%
    13:00 +34°C° 0 mm 7 mps 757 mmHg 26%
    14:00 +35°C° 0 mm 7 mps 757 mmHg 24%
    15:00 +34°C° 0 mm 7 mps 757 mmHg 25%
    16:00 +34°C° 0 mm 7 mps 756 mmHg 25%
    17:00 +34°C° 0 mm 6 mps 756 mmHg 26%
    18:00 +32°C° 0 mm 6 mps 756 mmHg 28%
    19:00 +29°C° 0 mm 6 mps 756 mmHg 31%
    20:00 +27°C° 0 mm 5 mps 756 mmHg 34%
    21:00 +27°C° 0 mm 6 mps 756 mmHg 34%
    22:00 +26°C° 0 mm 6 mps 756 mmHg 33%
    23:00 +26°C° 0 mm 7 mps 756 mmHg 33%

    25 August, Saturday

    Time Temperature Precipitation Wind Pressure Humidity
    00:00 +26°C° 0 mm 7 mps 756 mmHg 34%
    01:00 +24°C° 0 mm 7 mps 756 mmHg 36%
    02:00 +24°C° 0 mm 7 mps 756 mmHg 37%
    03:00 +23°C° 0 mm 6 mps 756 mmHg 39%
    04:00 +23°C° 0 mm 6 mps 756 mmHg 40%
    05:00 +22°C° 0 mm 6 mps 756 mmHg 41%
    06:00 +24°C° 0 mm 6 mps 756 mmHg 39%
    07:00 +26°C° 0 mm 6 mps 756 mmHg 37%
    08:00 +27°C° 0 mm 7 mps 756 mmHg 35%
    09:00 +29°C° 0 mm 7 mps 756 mmHg 33%
    10:00 +32°C° 0 mm 7 mps 756 mmHg 30%
    11:00 +33°C° 0 mm 7 mps 756 mmHg 28%
    12:00 +33°C° 0 mm 7 mps 756 mmHg 27%
    13:00 +34°C° 0 mm 7 mps 755 mmHg 26%
    14:00 +34°C° 0 mm 6 mps 755 mmHg 25%
    15:00 +34°C° 0 mm 6 mps 755 mmHg 25%
    16:00 +34°C° 0 mm 6 mps 755 mmHg 25%
    17:00 +33°C° 0 mm 5 mps 755 mmHg 25%
    18:00 +30°C° 0 mm 4 mps 755 mmHg 27%
    19:00 +28°C° 0 mm 4 mps 755 mmHg 29%
    20:00 +26°C° 0 mm 3 mps 755 mmHg 32%
    21:00 +26°C° 0 mm 3 mps 755 mmHg 31%
    22:00 +25°C° 0 mm 4 mps 755 mmHg 31%
    23:00 +25°C° 0 mm 4 mps 755 mmHg 30%
    Show more